Multibeam Report for SKQ201503T


Ship Name: Sikuliaq
Chief Scientist: Hartz, Steven
University of Alaska Fairbanks
Source Organization: Rolling Deck to Repository
Start Date: 2015-02-19
End Date: 2015-03-12


View ISO Metadata

Visit the full NCEI Bathymetry Viewer


Multibeam Bathymetry

Cruise Details

Project: Sikuliaq Homecoming
Instrument: Kongsberg EM302 and EM710

Data Quality

Number of Files: 122
Number of Records: 630129
BATHYMETRY DATA Quantity Percentage
Number of Beams 262122640 100%
Number of Good Beams 233794503 89.19%
Number of Zero Beams 0 0%
Number of Flagged Beams 28328137 10.81%
AMPLITUDE DATA Quantity Percentage
Number of Beams 262122640 100%
Number of Good Beams 233794503 89.19%
Number of Zero Beams 0 0%
Number of Flagged Beams 28328137 10.81%
SIDESCAN DATA Quantity Percentage
Number of Pixels 645252096 100%
Number of Good Pixels 376067810 58.28%
Number of Zero Pixels 0 0%
Number of Flagged Pixels 269184286 41.72%

Navigation Totals

Total Time: 196.9884 hours
Total Track Length: 2904.8666 km
Average Speed: 14.746 km/hr (7.9622 knots)

Cruise Bounds

Northern Extent: 60.826572
Southern Extent: 58.125763
Western Extent: -149.46861
Eastern Extent: -134.23816

Limits

Minimum Sonar Depth 0.1267 Maximum Sonar Depth 8.8083
Minimum Altitude 1.4669 Maximum Altitude 1552.3357
Minimum Depth 5.9372 Maximum Depth 1771.585
Minimum Amplitude 0 Maximum Amplitude 48.5
Minimum Sidescan 0 Maximum Sidescan 327.64

File Information

Full Resolution Bathymetry as collected (raw): 118

Files File Size Description
0000_20150219_183351_Sikuliaq.all.mb58.gz 319.30MB Kongsberg multibeam vendor format
0001_20150219_201446_Sikuliaq.all.mb58.gz 303.09MB Kongsberg multibeam vendor format
0002_20150219_221447_Sikuliaq.all.mb58.gz 165.84MB Kongsberg multibeam vendor format
0003_20150220_001446_Sikuliaq.all.mb58.gz 203.88MB Kongsberg multibeam vendor format
0004_20150220_021446_Sikuliaq.all.mb58.gz 324.54MB Kongsberg multibeam vendor format
0005_20150220_041446_Sikuliaq.all.mb58.gz 276.03MB Kongsberg multibeam vendor format
0006_20150220_061447_Sikuliaq.all.mb58.gz 276.95MB Kongsberg multibeam vendor format
0007_20150220_081446_Sikuliaq.all.mb58.gz 250.00MB Kongsberg multibeam vendor format
0008_20150220_101447_Sikuliaq.all.mb58.gz 309.60MB Kongsberg multibeam vendor format
0009_20150220_121446_Sikuliaq.all.mb58.gz 261.26MB Kongsberg multibeam vendor format
0010_20150220_141447_Sikuliaq.all.mb58.gz 236.89MB Kongsberg multibeam vendor format
0011_20150220_161447_Sikuliaq.all.mb58.gz 226.88MB Kongsberg multibeam vendor format
0012_20150220_181447_Sikuliaq.all.mb58.gz 170.92MB Kongsberg multibeam vendor format
0013_20150220_201449_Sikuliaq.all.mb58.gz 122.68MB Kongsberg multibeam vendor format
0014_20150220_221450_Sikuliaq.all.mb58.gz 129.73MB Kongsberg multibeam vendor format
0015_20150221_001448_Sikuliaq.all.mb58.gz 184.58MB Kongsberg multibeam vendor format
0016_20150221_021448_Sikuliaq.all.mb58.gz 225.80MB Kongsberg multibeam vendor format
0017_20150221_035446_Sikuliaq.all.mb58.gz 3.07MB Kongsberg multibeam vendor format
0018_20150221_035944_Sikuliaq.all.mb58.gz 316.91MB Kongsberg multibeam vendor format
0019_20150221_055945_Sikuliaq.all.mb58.gz 339.44MB Kongsberg multibeam vendor format
0020_20150221_075944_Sikuliaq.all.mb58.gz 419.14MB Kongsberg multibeam vendor format
0021_20150221_095944_Sikuliaq.all.mb58.gz 228.02MB Kongsberg multibeam vendor format
0022_20150221_115945_Sikuliaq.all.mb58.gz 90.32MB Kongsberg multibeam vendor format
0023_20150221_135946_Sikuliaq.all.mb58.gz 82.69MB Kongsberg multibeam vendor format
0024_20150221_155945_Sikuliaq.all.mb58.gz 159.45MB Kongsberg multibeam vendor format
0025_20150221_175945_Sikuliaq.all.mb58.gz 156.73MB Kongsberg multibeam vendor format
0026_20150221_195946_Sikuliaq.all.mb58.gz 169.25MB Kongsberg multibeam vendor format
0027_20150221_215945_Sikuliaq.all.mb58.gz 209.80MB Kongsberg multibeam vendor format
0028_20150221_235945_Sikuliaq.all.mb58.gz 160.75MB Kongsberg multibeam vendor format
0029_20150222_015945_Sikuliaq.all.mb58.gz 168.47MB Kongsberg multibeam vendor format
0030_20150222_035946_Sikuliaq.all.mb58.gz 159.37MB Kongsberg multibeam vendor format
0031_20150222_055946_Sikuliaq.all.mb58.gz 160.37MB Kongsberg multibeam vendor format
0032_20150222_075946_Sikuliaq.all.mb58.gz 155.39MB Kongsberg multibeam vendor format
0033_20150222_095946_Sikuliaq.all.mb58.gz 138.71MB Kongsberg multibeam vendor format
0034_20150222_115947_Sikuliaq.all.mb58.gz 153.69MB Kongsberg multibeam vendor format
0035_20150222_135946_Sikuliaq.all.mb58.gz 139.63MB Kongsberg multibeam vendor format
0036_20150222_155946_Sikuliaq.all.mb58.gz 148.49MB Kongsberg multibeam vendor format
0037_20150222_175947_Sikuliaq.all.mb58.gz 133.63MB Kongsberg multibeam vendor format
0038_20150222_195947_Sikuliaq.all.mb58.gz 133.76MB Kongsberg multibeam vendor format
0039_20150222_215946_Sikuliaq.all.mb58.gz 132.44MB Kongsberg multibeam vendor format
0040_20150222_235946_Sikuliaq.all.mb58.gz 221.90MB Kongsberg multibeam vendor format
0041_20150223_015946_Sikuliaq.all.mb58.gz 236.67MB Kongsberg multibeam vendor format
0042_20150223_035946_Sikuliaq.all.mb58.gz 260.62MB Kongsberg multibeam vendor format
0043_20150223_055946_Sikuliaq.all.mb58.gz 231.12MB Kongsberg multibeam vendor format
0044_20150223_075947_Sikuliaq.all.mb58.gz 190.43MB Kongsberg multibeam vendor format
0045_20150223_095946_Sikuliaq.all.mb58.gz 191.84MB Kongsberg multibeam vendor format
0046_20150223_115947_Sikuliaq.all.mb58.gz 191.62MB Kongsberg multibeam vendor format
0047_20150223_135946_Sikuliaq.all.mb58.gz 191.90MB Kongsberg multibeam vendor format
0048_20150223_155946_Sikuliaq.all.mb58.gz 192.10MB Kongsberg multibeam vendor format
0049_20150223_175947_Sikuliaq.all.mb58.gz 191.46MB Kongsberg multibeam vendor format
0050_20150223_195946_Sikuliaq.all.mb58.gz 213.06MB Kongsberg multibeam vendor format
0000_20150219_182945_Sikuliaq.all.mb58.gz 60.71MB Kongsberg multibeam vendor format
0001_20150219_185113_Sikuliaq.all.mb58.gz 425.53MB Kongsberg multibeam vendor format
0002_20150219_202113_Sikuliaq.all.mb58.gz 350.29MB Kongsberg multibeam vendor format
0003_20150219_215115_Sikuliaq.all.mb58.gz 85.57MB Kongsberg multibeam vendor format
0004_20150219_232115_Sikuliaq.all.mb58.gz 238.32MB Kongsberg multibeam vendor format
0005_20150220_005114_Sikuliaq.all.mb58.gz 266.60MB Kongsberg multibeam vendor format
0006_20150220_022114_Sikuliaq.all.mb58.gz 345.17MB Kongsberg multibeam vendor format
0007_20150220_035113_Sikuliaq.all.mb58.gz 314.46MB Kongsberg multibeam vendor format
0008_20150220_052113_Sikuliaq.all.mb58.gz 283.42MB Kongsberg multibeam vendor format
0009_20150220_065113_Sikuliaq.all.mb58.gz 311.02MB Kongsberg multibeam vendor format
0010_20150220_082114_Sikuliaq.all.mb58.gz 279.16MB Kongsberg multibeam vendor format
0011_20150220_095113_Sikuliaq.all.mb58.gz 315.67MB Kongsberg multibeam vendor format
0012_20150220_112113_Sikuliaq.all.mb58.gz 340.98MB Kongsberg multibeam vendor format
0013_20150220_125114_Sikuliaq.all.mb58.gz 272.68MB Kongsberg multibeam vendor format
0014_20150220_142113_Sikuliaq.all.mb58.gz 288.48MB Kongsberg multibeam vendor format
0015_20150220_155113_Sikuliaq.all.mb58.gz 288.48MB Kongsberg multibeam vendor format
0016_20150220_172114_Sikuliaq.all.mb58.gz 246.44MB Kongsberg multibeam vendor format
0017_20150220_185113_Sikuliaq.all.mb58.gz 146.59MB Kongsberg multibeam vendor format
0018_20150220_202113_Sikuliaq.all.mb58.gz 83.96MB Kongsberg multibeam vendor format
0019_20150220_215114_Sikuliaq.all.mb58.gz 62.89MB Kongsberg multibeam vendor format
0020_20150220_232114_Sikuliaq.all.mb58.gz 187.54MB Kongsberg multibeam vendor format
0021_20150221_005114_Sikuliaq.all.mb58.gz 178.71MB Kongsberg multibeam vendor format
0022_20150221_022113_Sikuliaq.all.mb58.gz 284.54MB Kongsberg multibeam vendor format
0023_20150221_035113_Sikuliaq.all.mb58.gz 293.31MB Kongsberg multibeam vendor format
0024_20150221_052113_Sikuliaq.all.mb58.gz 294.71MB Kongsberg multibeam vendor format
0025_20150221_065113_Sikuliaq.all.mb58.gz 349.13MB Kongsberg multibeam vendor format
0026_20150221_082113_Sikuliaq.all.mb58.gz 370.75MB Kongsberg multibeam vendor format
0027_20150221_095113_Sikuliaq.all.mb58.gz 221.68MB Kongsberg multibeam vendor format
0028_20150221_112115_Sikuliaq.all.mb58.gz 127.87MB Kongsberg multibeam vendor format
0029_20150221_125113_Sikuliaq.all.mb58.gz 59.50MB Kongsberg multibeam vendor format
0030_20150221_142113_Sikuliaq.all.mb58.gz 110.51MB Kongsberg multibeam vendor format
0031_20150221_155113_Sikuliaq.all.mb58.gz 97.78MB Kongsberg multibeam vendor format
0032_20150221_172113_Sikuliaq.all.mb58.gz 104.22MB Kongsberg multibeam vendor format
0033_20150221_185114_Sikuliaq.all.mb58.gz 97.66MB Kongsberg multibeam vendor format
0034_20150221_202114_Sikuliaq.all.mb58.gz 145.56MB Kongsberg multibeam vendor format
0035_20150221_215114_Sikuliaq.all.mb58.gz 256.17MB Kongsberg multibeam vendor format
0036_20150221_232114_Sikuliaq.all.mb58.gz 144.86MB Kongsberg multibeam vendor format
0037_20150222_005114_Sikuliaq.all.mb58.gz 139.60MB Kongsberg multibeam vendor format
0038_20150222_022113_Sikuliaq.all.mb58.gz 101.34MB Kongsberg multibeam vendor format
0039_20150222_035114_Sikuliaq.all.mb58.gz 101.03MB Kongsberg multibeam vendor format
0040_20150222_052113_Sikuliaq.all.mb58.gz 101.38MB Kongsberg multibeam vendor format
0041_20150222_065115_Sikuliaq.all.mb58.gz 107.74MB Kongsberg multibeam vendor format
0042_20150222_082114_Sikuliaq.all.mb58.gz 117.43MB Kongsberg multibeam vendor format
0043_20150222_095113_Sikuliaq.all.mb58.gz 84.16MB Kongsberg multibeam vendor format
0044_20150222_112114_Sikuliaq.all.mb58.gz 89.31MB Kongsberg multibeam vendor format
0045_20150222_125115_Sikuliaq.all.mb58.gz 105.42MB Kongsberg multibeam vendor format
0046_20150222_142114_Sikuliaq.all.mb58.gz 84.52MB Kongsberg multibeam vendor format
0047_20150222_155114_Sikuliaq.all.mb58.gz 99.45MB Kongsberg multibeam vendor format
0048_20150222_172115_Sikuliaq.all.mb58.gz 80.66MB Kongsberg multibeam vendor format
0049_20150222_185114_Sikuliaq.all.mb58.gz 75.64MB Kongsberg multibeam vendor format
0050_20150222_202113_Sikuliaq.all.mb58.gz 75.93MB Kongsberg multibeam vendor format
0051_20150222_215113_Sikuliaq.all.mb58.gz 75.72MB Kongsberg multibeam vendor format
0052_20150222_232113_Sikuliaq.all.mb58.gz 168.26MB Kongsberg multibeam vendor format
0053_20150223_005113_Sikuliaq.all.mb58.gz 270.28MB Kongsberg multibeam vendor format
0054_20150223_022114_Sikuliaq.all.mb58.gz 266.23MB Kongsberg multibeam vendor format
0055_20150223_035113_Sikuliaq.all.mb58.gz 296.72MB Kongsberg multibeam vendor format
0056_20150223_052113_Sikuliaq.all.mb58.gz 283.50MB Kongsberg multibeam vendor format
0057_20150223_065113_Sikuliaq.all.mb58.gz 265.86MB Kongsberg multibeam vendor format
0058_20150223_082113_Sikuliaq.all.mb58.gz 252.70MB Kongsberg multibeam vendor format
0059_20150223_095113_Sikuliaq.all.mb58.gz 256.17MB Kongsberg multibeam vendor format
0060_20150223_112113_Sikuliaq.all.mb58.gz 256.94MB Kongsberg multibeam vendor format
0061_20150223_125114_Sikuliaq.all.mb58.gz 253.79MB Kongsberg multibeam vendor format
0062_20150223_142113_Sikuliaq.all.mb58.gz 255.32MB Kongsberg multibeam vendor format
0063_20150223_155114_Sikuliaq.all.mb58.gz 257.05MB Kongsberg multibeam vendor format
0064_20150223_172114_Sikuliaq.all.mb58.gz 252.07MB Kongsberg multibeam vendor format
0065_20150223_185113_Sikuliaq.all.mb58.gz 256.08MB Kongsberg multibeam vendor format
0066_20150223_202114_Sikuliaq.all.mb58.gz 264.23MB Kongsberg multibeam vendor format

Metadata Files: 3

Files File Size Description
SKQ201503T_Multibeam.xml NGDC created ISO metadata
em302_bag_info.tar.gz 5.2KB Additional cruise information
em710_bag_info.tar.gz 6.4KB Additional cruise information

Water Column Sonar Data

Water Column Sonar Data Available: WCSD Map Viewer